Stündliche Wetter Aba-el-Baul

Heute, 2 März, Dienstag

Zeit Temperatur Niederschläge Wind Luftdruck Luftfeuchtigkeit
00:00 +21°C° 0 mm 4 m/S 756 mmHg 58%
01:00 +20°C° 0 mm 4 m/S 756 mmHg 60%
02:00 +19°C° 0 mm 3 m/S 756 mmHg 61%
03:00 +19°C° 0 mm 3 m/S 756 mmHg 61%
04:00 +19°C° 0 mm 3 m/S 756 mmHg 60%
05:00 +19°C° 0 mm 3 m/S 757 mmHg 59%
06:00 +19°C° 0 mm 3 m/S 758 mmHg 59%
07:00 +21°C° 0 mm 3 m/S 758 mmHg 51%
08:00 +23°C° 0 mm 4 m/S 758 mmHg 43%
09:00 +27°C° 0 mm 4 m/S 759 mmHg 35%
10:00 +28°C° 0 mm 5 m/S 758 mmHg 31%
11:00 +30°C° 0 mm 5 m/S 758 mmHg 27%
12:00 +32°C° 0 mm 5 m/S 757 mmHg 24%
13:00 +32°C° 0 mm 6 m/S 757 mmHg 25%
14:00 +30°C° 0 mm 6 m/S 756 mmHg 27%
15:00 +30°C° 0 mm 7 m/S 756 mmHg 28%
16:00 +28°C° 0 mm 7 m/S 756 mmHg 35%
17:00 +26°C° 0 mm 7 m/S 757 mmHg 43%
18:00 +23°C° 0 mm 7 m/S 757 mmHg 50%
19:00 +22°C° 0 mm 6 m/S 757 mmHg 55%
20:00 +20°C° 0 mm 6 m/S 757 mmHg 60%
21:00 +19°C° 0 mm 6 m/S 758 mmHg 65%
22:00 +19°C° 0 mm 6 m/S 758 mmHg 66%
23:00 +19°C° 0 mm 6 m/S 758 mmHg 66%

Morgen, 3 März, Mittwoch

Zeit Temperatur Niederschläge Wind Luftdruck Luftfeuchtigkeit
00:00 +19°C° 0 mm 6 m/S 758 mmHg 66%
01:00 +19°C° 0 mm 6 m/S 758 mmHg 68%
02:00 +17°C° 0 mm 6 m/S 757 mmHg 69%
03:00 +17°C° 0 mm 5 m/S 757 mmHg 71%
04:00 +17°C° 0 mm 5 m/S 757 mmHg 71%
05:00 +17°C° 0 mm 5 m/S 758 mmHg 72%
06:00 +16°C° 0 mm 5 m/S 758 mmHg 72%
07:00 +20°C° 0 mm 5 m/S 758 mmHg 60%
08:00 +22°C° 0 mm 5 m/S 759 mmHg 48%
09:00 +25°C° 0 mm 5 m/S 759 mmHg 36%
10:00 +27°C° 0 mm 6 m/S 759 mmHg 31%
11:00 +29°C° 0 mm 6 m/S 758 mmHg 26%
12:00 +32°C° 0 mm 6 m/S 758 mmHg 21%
13:00 +32°C° 0 mm 6 m/S 757 mmHg 20%
14:00 +32°C° 0 mm 5 m/S 757 mmHg 19%
15:00 +32°C° 0 mm 5 m/S 756 mmHg 18%
16:00 +29°C° 0 mm 5 m/S 756 mmHg 24%
17:00 +26°C° 0 mm 4 m/S 756 mmHg 30%
18:00 +23°C° 0 mm 4 m/S 757 mmHg 37%
19:00 +21°C° 0 mm 4 m/S 757 mmHg 41%
20:00 +20°C° 0 mm 3 m/S 757 mmHg 46%
21:00 +19°C° 0 mm 3 m/S 758 mmHg 51%
22:00 +19°C° 0 mm 3 m/S 758 mmHg 53%
23:00 +18°C° 0 mm 3 m/S 757 mmHg 54%

übermorgen, 4 März, Donnerstag

Zeit Temperatur Niederschläge Wind Luftdruck Luftfeuchtigkeit
00:00 +18°C° 0 mm 3 m/S 757 mmHg 56%
01:00 +18°C° 0 mm 4 m/S 757 mmHg 56%
02:00 +18°C° 0 mm 4 m/S 756 mmHg 56%
03:00 +18°C° 0 mm 4 m/S 756 mmHg 55%
04:00 +17°C° 0 mm 4 m/S 756 mmHg 54%
05:00 +17°C° 0 mm 4 m/S 756 mmHg 52%
06:00 +17°C° 0 mm 3 m/S 756 mmHg 50%
07:00 +20°C° 0 mm 3 m/S 756 mmHg 41%
08:00 +24°C° 0 mm 3 m/S 757 mmHg 32%
09:00 +27°C° 0 mm 3 m/S 757 mmHg 23%
10:00 +28°C° 0 mm 3 m/S 757 mmHg 22%
11:00 +30°C° 0 mm 4 m/S 757 mmHg 20%
12:00 +33°C° 0 mm 4 m/S 756 mmHg 19%
13:00 +33°C° 0 mm 4 m/S 756 mmHg 19%
14:00 +33°C° 0 mm 4 m/S 755 mmHg 20%
15:00 +33°C° 0 mm 4 m/S 754 mmHg 20%
16:00 +30°C° 0 mm 4 m/S 754 mmHg 24%
17:00 +28°C° 0 mm 4 m/S 754 mmHg 28%
18:00 +26°C° 0 mm 4 m/S 754 mmHg 33%
19:00 +25°C° 0 mm 4 m/S 755 mmHg 34%
20:00 +25°C° 0 mm 4 m/S 755 mmHg 35%
21:00 +25°C° 0 mm 3 m/S 755 mmHg 37%
22:00 +25°C° 0 mm 4 m/S 755 mmHg 38%
23:00 +25°C° 0 mm 4 m/S 755 mmHg 40%

5 März, Freitag

Zeit Temperatur Niederschläge Wind Luftdruck Luftfeuchtigkeit
00:00 +23°C° 0 mm 4 m/S 755 mmHg 42%
01:00 +23°C° 0 mm 4 m/S 754 mmHg 45%
02:00 +23°C° 0 mm 4 m/S 754 mmHg 48%
03:00 +23°C° 0 mm 4 m/S 753 mmHg 51%
04:00 +23°C° 0 mm 5 m/S 754 mmHg 51%
05:00 +23°C° 0 mm 5 m/S 754 mmHg 50%
06:00 +23°C° 0 mm 5 m/S 755 mmHg 50%
07:00 +26°C° 0 mm 6 m/S 755 mmHg 42%
08:00 +27°C° 0 mm 6 m/S 756 mmHg 34%
09:00 +29°C° 0 mm 7 m/S 757 mmHg 27%
10:00 +29°C° 0 mm 8 m/S 757 mmHg 28%
11:00 +29°C° 0 mm 9 m/S 757 mmHg 30%
12:00 +29°C° 0 mm 11 m/S 757 mmHg 32%
13:00 +29°C° 0 mm 11 m/S 757 mmHg 32%
14:00 +28°C° 0 mm 11 m/S 756 mmHg 31%
15:00 +27°C° 0 mm 11 m/S 756 mmHg 31%
16:00 +24°C° 0 mm 10 m/S 757 mmHg 36%
17:00 +22°C° 0 mm 9 m/S 757 mmHg 41%
18:00 +20°C° 0 mm 8 m/S 758 mmHg 46%
19:00 +20°C° 0 mm 8 m/S 758 mmHg 46%
20:00 +18°C° 0 mm 8 m/S 759 mmHg 46%
21:00 +18°C° 0 mm 8 m/S 759 mmHg 45%
22:00 +18°C° 0 mm 9 m/S 759 mmHg 46%
23:00 +18°C° 0 mm 9 m/S 759 mmHg 47%

6 März, Samstag

Zeit Temperatur Niederschläge Wind Luftdruck Luftfeuchtigkeit
00:00 +18°C° 0 mm 9 m/S 759 mmHg 48%
01:00 +18°C° 0 mm 9 m/S 758 mmHg 50%
02:00 +18°C° 0 mm 9 m/S 758 mmHg 51%
03:00 +18°C° 0 mm 8 m/S 758 mmHg 53%
04:00 +17°C° 0 mm 8 m/S 758 mmHg 57%
05:00 +17°C° 0 mm 7 m/S 759 mmHg 61%
06:00 +17°C° 0 mm 7 m/S 759 mmHg 64%
07:00 +18°C° 0 mm 8 m/S 760 mmHg 58%
08:00 +21°C° 0 mm 8 m/S 760 mmHg 51%
09:00 +23°C° 0 mm 9 m/S 761 mmHg 45%
10:00 +23°C° 0 mm 10 m/S 760 mmHg 42%
11:00 +24°C° 0 mm 10 m/S 760 mmHg 39%
12:00 +26°C° 0 mm 10 m/S 759 mmHg 37%
13:00 +26°C° 0 mm 10 m/S 759 mmHg 36%
14:00 +26°C° 0 mm 10 m/S 758 mmHg 34%
15:00 +24°C° 0 mm 10 m/S 758 mmHg 33%
16:00 +23°C° 0 mm 9 m/S 758 mmHg 38%
17:00 +21°C° 0 mm 8 m/S 758 mmHg 43%
18:00 +18°C° 0 mm 7 m/S 758 mmHg 48%
19:00 +17°C° 0 mm 6 m/S 759 mmHg 49%
20:00 +16°C° 0 mm 6 m/S 759 mmHg 51%
21:00 +16°C° 0 mm 6 m/S 759 mmHg 53%
22:00 +15°C° 0 mm 6 m/S 759 mmHg 51%
23:00 +15°C° 0 mm 6 m/S 759 mmHg 49%

7 März, Sonntag

Zeit Temperatur Niederschläge Wind Luftdruck Luftfeuchtigkeit
00:00 +15°C° 0 mm 6 m/S 758 mmHg 47%
01:00 +15°C° 0 mm 6 m/S 758 mmHg 48%
02:00 +15°C° 0 mm 6 m/S 758 mmHg 48%
03:00 +15°C° 0 mm 6 m/S 757 mmHg 48%
04:00 +15°C° 0 mm 6 m/S 758 mmHg 49%
05:00 +15°C° 0 mm 6 m/S 758 mmHg 49%
06:00 +15°C° 0 mm 6 m/S 758 mmHg 49%
07:00 +17°C° 0 mm 6 m/S 758 mmHg 42%
08:00 +20°C° 0 mm 7 m/S 759 mmHg 34%
09:00 +23°C° 0 mm 8 m/S 759 mmHg 27%
10:00 +24°C° 0 mm 8 m/S 758 mmHg 25%
11:00 +26°C° 0 mm 8 m/S 758 mmHg 23%
12:00 +27°C° 0 mm 8 m/S 757 mmHg 20%
13:00 +27°C° 0 mm 8 m/S 757 mmHg 20%
14:00 +27°C° 0 mm 8 m/S 756 mmHg 20%
15:00 +27°C° 0 mm 8 m/S 756 mmHg 20%
16:00 +24°C° 0 mm 7 m/S 756 mmHg 23%
17:00 +22°C° 0 mm 5 m/S 756 mmHg 26%
18:00 +20°C° 0 mm 4 m/S 756 mmHg 30%
19:00 +18°C° 0 mm 4 m/S 756 mmHg 37%
20:00 +17°C° 0 mm 4 m/S 756 mmHg 44%
21:00 +16°C° 0 mm 3 m/S 757 mmHg 51%
22:00 +16°C° 0 mm 3 m/S 756 mmHg 52%
23:00 +14°C° 0 mm 3 m/S 756 mmHg 52%
Mehr zeigen

Wir brauchen deine Erlaubnis

Meteoprog und unser Service Anbieter werden persönliche Daten aufbewahren, so wie Cookies, Geräte Bezeichnung oder ähnliche Technologien von deinem Gerät und Prozess, so wie Persönliche Daten Inhalte und Werbungen, genauso wie social Media und den Verkehr zu analysieren.

  • Aufbewahrung und/oder Zugang zu deiner Geräte Informationen.

    Cookies, Geräte Bezeichnung oder andere Informationen, können aufbewahrt oder Zugang zu deinem Gerät erhalten, für den Grund, der oben angegeben wird.

  • Personalisierte Werbung und Inhalte, Messungen, Einblick in das Publikum und Produkt Entwicklung.

    Werbungen und Inhalte können personalisiert werden, basierend auf ein Profil. Mehr Daten können besser personalisierte Werbungen und Inhalte hinzufügen. Werbung und Inhalte können gezeigt und gemessen werden. Einblicke über das Publikum, welche die Werbung gesehen haben und den Inhalt, können abgeleitet werden. So wie Daten können genutzt werden, um es zu verbessern oder die Benutzer Erfahrung zu verbessern das System und die Software.

Wenn du “Ich stimme zu” klickst, erlaubst du uns, die Cookies zu benutzen die Geräte Bezeichnung, den Web oder ähnliche Technologien zu benutzen. Deine Settings, können in deinem Gerät bei deinem Browser geändert werden.

Für den bestimmten Zweck, berechtigten Interessen beruhen darauf, mehr als auf den Inhalt. Du kannst mehr darüber in unseren Privaten und Cookie Politik lesen.